Overview Statistics Trail Chart Weather Telemetry Raw packets
 

This is the latest recevied weather packets stored in our database for station/object LA4M-10. If no packets are shown the sender has not sent any weather packets the latest 10 day(s).

<< 1 2 3 4 5 >>
Time Temp. Humidity Pressure Rain* Wind** Luminosity Snow
1788628584 11.11° C 100% 940.9 hPa - - - -
1788627684 11.67° C 100% 940.7 hPa - - - -
1788626784 12.22° C 100% 940.4 hPa - - - -
1788625884 12.78° C 100% 940.2 hPa - - - -
1788624984 12.78° C 100% 939.9 hPa - - - -
1788624083 13.89° C 100% 939.5 hPa - - - -
1788623183 15° C 97% 939.2 hPa - - - -
1788622283 15° C 100% 939.1 hPa - - - -
1788621383 16.11° C 100% 938.8 hPa - - - -
1788620483 16.67° C 100% 938.6 hPa - - - -
1788619583 16.11° C 100% 938.6 hPa - - - -
1788618683 16.11° C 89% 938.4 hPa - - - -
1788617783 17.22° C 79% 938.2 hPa - - - -
1788616883 17.22° C 79% 937.8 hPa - - - -
1788615982 18.33° C 75% 937.6 hPa - - - -
1788615082 18.89° C 75% 937.4 hPa - - - -
1788614182 19.44° C 79% 937.2 hPa - - - -
1788613282 18.89° C 77% 937 hPa - - - -
1788612382 18.89° C 74% 936.9 hPa - - - -
1788611482 19.44° C 73% 936.8 hPa - - - -
1788610582 19.44° C 70% 936.6 hPa - - - -
1788609682 20° C 74% 936.5 hPa - - - -
1788608782 20° C 70% 936.3 hPa - - - -
1788607882 20° C 74% 936.1 hPa - - - -
1788606981 20° C 77% 935.9 hPa - - - -

* Rain since midnight (hover to see other rain measurements)
** Current wind speed in m/s (hover to see current wind gust speed)